Location: Newark
(7.0858°N, 171.3717°E)
Time: 08:56:09
(UTC+00:00)

S-56A Canister/Altair - Pass Details

Date: 04 December 2020
Orbit: 633 x 2499 km, 38.9° (Epoch: 27 January)

Event Time Altitude Azimuth Distance (km) Brightness Sun altitude
Rises 04:29:18 0° 243° (WSW) 6,035 13.6 23.4°
Reaches altitude 10° 04:33:18 10° 247° (WSW) 5,114 13.8 22.5°
Maximum altitude 04:47:54 54° 320° (NW) 2,793 10.8 19.3°
Drops below altitude 10° 05:00:34 10° 35° (NE) 4,463 11.0 16.4°
Sets 05:03:51 0° 40° (NE) 5,244 11.2 15.7°
